Time,TemperatureF,DewpointF,PressureIn,WindDirection,WindDirectionDegrees,WindSpeedMPH,WindSpeedGustMPH,Humidity,HourlyPrecipIn,Conditions,Clouds,dailyrainin,SoftwareType,DateUTC
2013-01-31 00:01:00,16.0,12.0,29.90,North,0,0.0,-999.0,85,-99.99,,,-99.99,,2013-01-31 06:01:00,
2013-01-31 00:10:00,16.0,12.0,29.90,North,0,0.0,-999.0,85,-99.99,,,-99.99,,2013-01-31 06:10:00,
2013-01-31 08:02:00,19.0,16.0,30.08,NNE,20,6.0,-999.0,85,-99.99,,,-99.99,,2013-01-31 14:02:00,
2013-01-31 08:11:00,19.0,16.0,30.09,North,10,6.0,-999.0,85,-99.99,,,-99.99,,2013-01-31 14:11:00,
2013-01-31 08:22:00,19.0,16.0,30.09,North,10,6.0,-999.0,85,-99.99,,,-99.99,,2013-01-31 14:22:00,
2013-01-31 08:32:00,19.0,16.0,30.11,NNE,20,7.0,-999.0,85,-99.99,,,-99.99,,2013-01-31 14:32:00,
2013-01-31 08:42:00,19.0,16.0,30.12,North,10,7.0,-999.0,85,-99.99,,,-99.99,,2013-01-31 14:42:00,
2013-01-31 08:52:00,21.0,16.0,30.13,North,10,8.0,-999.0,79,-99.99,,,-99.99,,2013-01-31 14:52:00,
2013-01-31 09:03:00,21.0,16.0,30.13,North,10,8.0,-999.0,79,-99.99,,,-99.99,,2013-01-31 15:03:00,
2013-01-31 09:12:00,19.0,16.0,30.14,North,10,7.0,-999.0,85,-99.99,,,-99.99,,2013-01-31 15:12:00,
2013-01-31 09:22:00,19.0,16.0,30.15,NNE,20,9.0,-999.0,85,-99.99,,,-99.99,,2013-01-31 15:22:00,
2013-01-31 09:32:00,19.0,16.0,30.16,NNE,20,12.0,-999.0,85,-99.99,,,-99.99,,2013-01-31 15:32:00,
2013-01-31 09:42:00,19.0,16.0,30.17,North,10,12.0,-999.0,85,-99.99,,,-99.99,,2013-01-31 15:42:00,
2013-01-31 09:51:00,19.0,16.0,30.18,North,10,9.0,-999.0,85,-99.99,,,-99.99,,2013-01-31 15:51:00,
2013-01-31 10:03:00,19.0,16.0,30.18,North,10,9.0,-999.0,85,-99.99,,,-99.99,,2013-01-31 16:03:00,
2013-01-31 10:12:00,21.0,16.0,30.19,North,10,9.0,-999.0,79,-99.99,,,-99.99,,2013-01-31 16:12:00,
2013-01-31 10:21:00,21.0,16.0,30.21,North,360,9.0,-999.0,79,-99.99,,,-99.99,,2013-01-31 16:21:00,
2013-01-31 10:32:00,21.0,16.0,30.22,North,350,14.0,-999.0,79,-99.99,,,-99.99,,2013-01-31 16:32:00,
2013-01-31 10:42:00,21.0,14.0,30.23,North,350,14.0,-999.0,73,-99.99,,,-99.99,,2013-01-31 16:42:00,
2013-01-31 10:51:00,21.0,14.0,30.24,North,360,16.0,-999.0,73,-99.99,,,-99.99,,2013-01-31 16:51:00,
2013-01-31 11:02:00,21.0,14.0,30.24,North,360,16.0,-999.0,73,-99.99,,,-99.99,,2013-01-31 17:02:00,
2013-01-31 11:12:00,21.0,14.0,30.25,North,360,14.0,-999.0,73,-99.99,,,-99.99,,2013-01-31 17:12:00,
2013-01-31 11:22:00,21.0,12.0,30.27,North,350,15.0,-999.0,67,-99.99,,,-99.99,,2013-01-31 17:22:00,
2013-01-31 11:32:00,21.0,12.0,30.28,North,360,17.0,-999.0,67,-99.99,,,-99.99,,2013-01-31 17:32:00,
2013-01-31 11:43:00,21.0,12.0,30.28,North,360,16.0,-999.0,67,-99.99,,,-99.99,,2013-01-31 17:43:00,
2013-01-31 11:53:00,21.0,12.0,30.28,North,10,15.0,-999.0,67,-99.99,,,-99.99,,2013-01-31 17:53:00,
2013-01-31 12:02:00,21.0,12.0,30.28,North,10,15.0,-999.0,67,-99.99,,,-99.99,,2013-01-31 18:02:00,
2013-01-31 12:12:00,21.0,12.0,30.29,North,350,12.0,18.0,67,-99.99,,,-99.99,,2013-01-31 18:12:00,
2013-01-31 12:22:00,21.0,12.0,30.29,North,350,15.0,-999.0,67,-99.99,,,-99.99,,2013-01-31 18:22:00,
2013-01-31 12:32:00,21.0,12.0,30.29,North,350,10.0,-999.0,67,-99.99,,,-99.99,,2013-01-31 18:32:00,
2013-01-31 12:43:00,21.0,12.0,30.29,NNW,340,15.0,-999.0,67,-99.99,,,-99.99,,2013-01-31 18:43:00,
2013-01-31 12:52:00,21.0,10.0,30.29,NNW,340,16.0,21.0,62,-99.99,,,-99.99,,2013-01-31 18:52:00,
2013-01-31 13:02:00,21.0,10.0,30.29,NNW,340,16.0,21.0,62,-99.99,,,-99.99,,2013-01-31 19:02:00,
2013-01-31 13:12:00,21.0,10.0,30.30,NNW,330,16.0,25.0,62,-99.99,,,-99.99,,2013-01-31 19:12:00,
2013-01-31 13:21:00,21.0,10.0,30.29,NNW,330,21.0,28.0,62,-99.99,,,-99.99,,2013-01-31 19:21:00,
2013-01-31 13:32:00,21.0,9.0,30.29,NNW,330,20.0,28.0,57,-99.99,,,-99.99,,2013-01-31 19:32:00,
2013-01-31 13:42:00,21.0,9.0,30.29,NNW,340,18.0,-999.0,57,-99.99,,,-99.99,,2013-01-31 19:42:00,
2013-01-31 13:51:00,23.0,10.0,30.30,NW,320,17.0,24.0,57,-99.99,,,-99.99,,2013-01-31 19:51:00,
2013-01-31 14:02:00,23.0,10.0,30.30,NW,320,17.0,24.0,57,-99.99,,,-99.99,,2013-01-31 20:02:00,
2013-01-31 14:11:00,21.0,9.0,30.30,NNW,340,17.0,25.0,57,-99.99,,,-99.99,,2013-01-31 20:11:00,
2013-01-31 14:21:00,21.0,9.0,30.30,NNW,330,18.0,-999.0,57,-99.99,,,-99.99,,2013-01-31 20:21:00,
2013-01-31 14:31:00,21.0,9.0,30.31,NNW,330,14.0,22.0,57,-99.99,,,-99.99,,2013-01-31 20:31:00,
2013-01-31 14:42:00,21.0,9.0,30.30,NNW,330,15.0,22.0,57,-99.99,,,-99.99,,2013-01-31 20:42:00,
2013-01-31 14:52:00,21.0,9.0,30.30,NNW,330,17.0,24.0,57,-99.99,,,-99.99,,2013-01-31 20:52:00,
2013-01-31 15:02:00,21.0,9.0,30.30,NNW,330,17.0,24.0,57,-99.99,,,-99.99,,2013-01-31 21:02:00,
2013-01-31 15:12:00,21.0,9.0,30.31,NNW,330,15.0,-999.0,57,-99.99,,,-99.99,,2013-01-31 21:12:00,
2013-01-31 15:21:00,21.0,9.0,30.31,NNW,330,16.0,21.0,57,-99.99,,,-99.99,,2013-01-31 21:21:00,
2013-01-31 15:32:00,21.0,7.0,30.31,NNW,330,16.0,-999.0,53,-99.99,,,-99.99,,2013-01-31 21:32:00,
2013-01-31 15:42:00,21.0,9.0,30.31,NNW,330,15.0,20.0,57,-99.99,,,-99.99,,2013-01-31 21:42:00,
2013-01-31 15:52:00,21.0,7.0,30.31,NNW,330,17.0,23.0,53,-99.99,,,-99.99,,2013-01-31 21:52:00,
2013-01-31 16:02:00,21.0,7.0,30.31,NNW,330,17.0,23.0,53,-99.99,,,-99.99,,2013-01-31 22:02:00,
2013-01-31 16:11:00,21.0,7.0,30.31,NNW,340,15.0,-999.0,53,-99.99,,,-99.99,,2013-01-31 22:11:00,
2013-01-31 16:22:00,21.0,7.0,30.31,NW,320,16.0,-999.0,53,-99.99,,,-99.99,,2013-01-31 22:22:00,
2013-01-31 16:32:00,21.0,7.0,30.32,NNW,330,13.0,-999.0,53,-99.99,,,-99.99,,2013-01-31 22:32:00,
2013-01-31 16:42:00,21.0,7.0,30.32,NNW,330,15.0,-999.0,53,-99.99,,,-99.99,,2013-01-31 22:42:00,
2013-01-31 16:51:00,21.0,7.0,30.33,NNW,340,12.0,-999.0,53,-99.99,,,-99.99,,2013-01-31 22:51:00,
2013-01-31 17:02:00,21.0,7.0,30.33,NNW,340,12.0,-999.0,53,-99.99,,,-99.99,,2013-01-31 23:02:00,
2013-01-31 17:12:00,21.0,9.0,30.33,NNW,340,10.0,-999.0,57,-99.99,,,-99.99,,2013-01-31 23:12:00,
2013-01-31 17:21:00,21.0,9.0,30.33,NNW,340,10.0,-999.0,57,-99.99,,,-99.99,,2013-01-31 23:21:00,
2013-01-31 17:31:00,21.0,7.0,30.33,NNW,340,10.0,-999.0,53,-99.99,,,-99.99,,2013-01-31 23:31:00,
2013-01-31 17:42:00,19.0,7.0,30.33,NNW,340,10.0,-999.0,57,-99.99,,,-99.99,,2013-01-31 23:42:00,
2013-01-31 17:52:00,18.0,7.0,30.34,NNW,340,8.0,-999.0,62,-99.99,,,-99.99,,2013-01-31 23:52:00,
2013-01-31 18:01:00,18.0,7.0,30.34,NNW,340,8.0,-999.0,62,-99.99,,,-99.99,,2013-02-01 00:01:00,
2013-01-31 18:11:00,18.0,7.0,30.34,NNW,330,7.0,-999.0,62,-99.99,,,-99.99,,2013-02-01 00:11:00,
2013-01-31 18:21:00,16.0,7.0,30.35,North,350,6.0,-999.0,67,-99.99,,,-99.99,,2013-02-01 00:21:00,
2013-01-31 18:31:00,14.0,7.0,30.35,North,350,6.0,-999.0,72,-99.99,,,-99.99,,2013-02-01 00:31:00,
2013-01-31 18:42:00,14.0,7.0,30.34,NNW,340,6.0,-999.0,72,-99.99,,,-99.99,,2013-02-01 00:42:00,
2013-01-31 18:51:00,10.0,5.0,30.36,NW,320,3.0,-999.0,78,-99.99,,,-99.99,,2013-02-01 00:51:00,
2013-01-31 19:01:00,10.0,5.0,30.36,NW,320,3.0,-999.0,78,-99.99,,,-99.99,,2013-02-01 01:01:00,
2013-01-31 19:11:00,12.0,7.0,30.36,North,0,0.0,-999.0,78,-99.99,,,-99.99,,2013-02-01 01:11:00,
2013-01-31 19:21:00,10.0,5.0,30.37,North,0,0.0,-999.0,78,-99.99,,,-99.99,,2013-02-01 01:21:00,
2013-01-31 19:32:00,9.0,3.0,30.37,North,360,5.0,-999.0,78,-99.99,,,-99.99,,2013-02-01 01:32:00,
2013-01-31 19:41:00,9.0,3.0,30.37,North,360,3.0,-999.0,78,-99.99,,,-99.99,,2013-02-01 01:41:00,
2013-01-31 19:51:00,9.0,3.0,30.37,North,0,0.0,-999.0,78,-99.99,,,-99.99,,2013-02-01 01:51:00,
2013-01-31 20:01:00,9.0,3.0,30.37,North,0,0.0,-999.0,78,-99.99,,,-99.99,,2013-02-01 02:01:00,
2013-01-31 20:11:00,10.0,5.0,30.37,NNW,340,3.0,-999.0,78,-99.99,,,-99.99,,2013-02-01 02:11:00,
2013-01-31 20:21:00,10.0,5.0,30.38,North,0,0.0,-999.0,78,-99.99,,,-99.99,,2013-02-01 02:21:00,
2013-01-31 20:31:00,10.0,3.0,30.40,North,0,0.0,-999.0,72,-99.99,,,-99.99,,2013-02-01 02:31:00,
2013-01-31 20:41:00,9.0,1.0,30.40,South,190,6.0,-999.0,71,-99.99,,,-99.99,,2013-02-01 02:41:00,
2013-01-31 20:52:00,10.0,5.0,30.40,SE,140,3.0,-999.0,78,-99.99,,,-99.99,,2013-02-01 02:52:00,
2013-01-31 21:01:00,10.0,5.0,30.40,SE,140,3.0,-999.0,78,-99.99,,,-99.99,,2013-02-01 03:01:00,
2013-01-31 21:12:00,9.0,3.0,30.41,North,0,0.0,-999.0,78,-99.99,,,-99.99,,2013-02-01 03:12:00,
2013-01-31 21:21:00,10.0,3.0,30.42,North,0,0.0,-999.0,72,-99.99,,,-99.99,,2013-02-01 03:21:00,
2013-01-31 21:32:00,9.0,3.0,30.42,North,0,0.0,-999.0,78,-99.99,,,-99.99,,2013-02-01 03:32:00,
2013-01-31 21:42:00,10.0,3.0,30.42,North,0,0.0,-999.0,72,-99.99,,,-99.99,,2013-02-01 03:42:00,
2013-01-31 21:51:00,9.0,3.0,30.42,SSE,150,3.0,-999.0,78,-99.99,,,-99.99,,2013-02-01 03:51:00,
2013-01-31 22:02:00,9.0,3.0,30.42,SSE,150,3.0,-999.0,78,-99.99,,,-99.99,,2013-02-01 04:02:00,
2013-01-31 22:11:00,9.0,3.0,30.42,North,0,0.0,-999.0,78,-99.99,,,-99.99,,2013-02-01 04:11:00,
2013-01-31 22:21:00,9.0,3.0,30.41,North,0,0.0,-999.0,78,-99.99,,,-99.99,,2013-02-01 04:21:00,
2013-01-31 22:31:00,9.0,3.0,30.41,North,0,0.0,-999.0,78,-99.99,,,-99.99,,2013-02-01 04:31:00,
2013-01-31 22:41:00,9.0,3.0,30.41,North,0,0.0,-999.0,78,-99.99,,,-99.99,,2013-02-01 04:41:00,
2013-01-31 22:51:00,10.0,7.0,30.41,North,0,0.0,-999.0,85,-99.99,,,-99.99,,2013-02-01 04:51:00,
2013-01-31 23:03:00,10.0,7.0,30.41,North,0,0.0,-999.0,85,-99.99,,,-99.99,,2013-02-01 05:03:00,
2013-01-31 23:11:00,10.0,7.0,30.40,North,0,0.0,-999.0,85,-99.99,,,-99.99,,2013-02-01 05:11:00,
2013-01-31 23:22:00,10.0,7.0,30.40,North,0,0.0,-999.0,85,-99.99,,,-99.99,,2013-02-01 05:22:00,
2013-01-31 23:32:00,10.0,7.0,30.40,South,190,6.0,-999.0,85,-99.99,,,-99.99,,2013-02-01 05:32:00,
2013-01-31 23:41:00,10.0,7.0,30.40,North,0,0.0,-999.0,85,-99.99,,,-99.99,,2013-02-01 05:41:00,
2013-01-31 23:52:00,10.0,7.0,30.40,SSW,200,3.0,-999.0,85,-99.99,,,-99.99,,2013-02-01 05:52:00,